Regional Weather Roundup
Issued by NWS

Home | Current Version | Previous Version | Text Only | Print | Product List | Glossary On
Versions: 1 2 3 4 5 6 7 8 9 10 11 12 13 14 15 16 17 18 19 20 21 22 23 24 25 26 27 28 29 30 31 32 33 34 35 36 37 38 39 40 41 42 43 44 45 46 47 48 49 50
577
ASUS43 KMKX 091600
RWRWI

WISCONSIN REGIONAL WEATHER ROUNDUP
NATIONAL WEATHER SERVICE MILWAUKEE/SULLIVAN WI
1000 AM CST FRI DEC 09 2016

NOTE: "FAIR" INDICATES FEW OR NO CLOUDS BELOW 12,000 FEET WITH NO
SIGNIFICANT WEATHER AND/OR OBSTRUCTIONS TO VISIBILITY.

WIZ001-002-006>008-014>016-023>028-091700-
NORTHWEST WISCONSIN

CITY           SKY/WX    TMP DP  RH WIND       PRES   REMARKS
SUPERIOR ARPT  CLOUDY    15   6  65 NW9       30.54R WCI   4
ASHLAND        CLOUDY    16   8  71 W7        30.51R WCI   6
HAYWARD        CLOUDY    15   8  73 CALM      30.49R
SIREN          FLURRIES  15  10  83 W6        30.52S WCI   6
CUMBERLAND     LGT SNOW  14  10  85 W7        30.50R WCI   4
RICE LAKE      LGT SNOW  15  11  85 W5        30.53R WCI   7
CHETEK         CLOUDY    15  11  83 CALM      30.52R
LADYSMITH      CLOUDY    15   9  78 W6        30.51R WCI   6
EAU CLAIRE     NOT AVBL
MENOMONIE      CLOUDY    17  13  83 W6        30.55R WCI   9
NEW RICHMOND   LGT SNOW  16  11  81 W7        30.53S WCI   6
OSCEOLA        LGT SNOW  17  13  84 W7        30.57R WCI   7
$$

WIZ003>005-009-010-017-018-091700-
NORTH CENTRAL WISCONSIN

CITY           SKY/WX    TMP DP  RH WIND       PRES   REMARKS
MANITOWISH WTR CLOUDY    14   9  81 W8        30.41R WCI   2
ARBOR VITAE    MOSUNNY   17   9  72 NW13      30.41R WCI   3
WOODRUFF       MOSUNNY   17   9  72 NW13      30.41R WCI   3
RHINELANDER    SUNNY     16   8  71 NW12      30.41R WCI   3
EAGLE RIVER    CLOUDY    14   7  74 NW10G18   30.40R WCI   1
LAND O LAKES   LGT SNOW  15  11  81 W9        30.40R WCI   4
PHILLIPS       CLOUDY    13   8  81 NW7       30.45R WCI   2
TOMAHAWK       CLOUDY    14   9  79 W8        30.44R WCI   3
MEDFORD        CLOUDY    11   6  80 NW8       30.45R WCI   0
MERRILL        SUNNY     15   8  73 NW8       30.46R WCI   4
$$

WIZ029-030-035-036-043>047-091700-
CENTRAL WISCONSIN

CITY           SKY/WX    TMP DP  RH WIND       PRES   REMARKS
WAUSAU         SUNNY     15   8  73 NW8       30.46R WCI   4
MOSINEE        MOSUNNY   14  10  85 NW7       30.48R WCI   4
MARSHFIELD     CLOUDY    13   7  77 NW7       30.48R WCI   3
STEVENS POINT  SUNNY     15   8  75 W6        30.49R WCI   6
WAUPACA        SUNNY     22  12  65 W7        30.50R WCI  14
WAUTOMA        SUNNY     18  11  74 W10       30.52  WCI   6
WISC RAPIDS    MOSUNNY   17   9  70 NW7       30.51S WCI   8
CAMP DOUGLAS   NOT AVBL
$$

WIZ011>013-019>022-031-037>040-048>050-091700-
NORTHEAST WISCONSIN

CITY           SKY/WX    TMP DP  RH WIND       PRES   REMARKS
ANTIGO         SUNNY     14   8  78 NW10      30.42R WCI   1
SHAWANO        SUNNY     22  10  59 W10       30.47R WCI  11
OCONTO         SUNNY     21  11  65 NW10G18   30.45R WCI  10
STURGEON BAY   SUNNY     24  12  60 NW13G23   30.43R WCI  12
GREEN BAY      SUNNY     24  12  60 W13       30.47R WCI  12
MANITOWOC      NOT AVBL
APPLETON       MOSUNNY   19   9  63 NW12      30.46R WCI   7
CLINTONVILLE   SUNNY     21  10  63 NW15      30.48R WCI   8
OSHKOSH        SUNNY     21  11  65 W13       30.48R WCI   9
$$

WIZ032>034-041-042-053>061-091700-
SOUTHWEST WISCONSIN

CITY           SKY/WX    TMP DP  RH WIND       PRES   REMARKS
LA CROSSE      SUNNY     22  11  62 N9        30.57S WCI  12
SPARTA         MOSUNNY   20  11  69 W7        30.55S WCI  11
VIROQUA        CLOUDY    18  13  82 NW7       30.51S WCI   8
BOSCOBEL       PTSUNNY   20  13  74 SW3       30.58R
PRAIRIE DU CHI SUNNY     17  10  74 NW5       30.59R WCI  10
PLATTEVILLE    SUNNY     16  13  88 NW7       30.54S WCI   6
$$

WIZ056-057-062-063-064-067-068-091700-
SOUTH CENTRAL WISCONSIN

CITY           SKY/WX    TMP DP  RH WIND       PRES   REMARKS
REEDSBURG      MOSUNNY   18  11  73 NW7       30.53R WCI   9
BARABOO/DELLS  MOSUNNY   19  10  68 W13       30.53R WCI   6
LONE ROCK      NOT AVBL
MINERAL POINT  FLURRIES  21  18  86 W7        30.53R WCI  13
MADISON        MOSUNNY   20  10  65 NW9       30.52S WCI   9
MIDDLETON      SUNNY     22  13  70 NW13      30.53R WCI  10
WATERTOWN      SUNNY     21  14  75 W12       30.51R WCI   9
MONROE         FLURRIES  21  16  79 W6        30.52R WCI  14
JANESVILLE     CLOUDY    25  16  68 NW9       30.53R WCI  15
$$

WIZ051-052-058>065-066-070>072-091700-
SOUTHEAST WISCONSIN

CITY           SKY/WX    TMP DP  RH WIND       PRES   REMARKS
MILWAUKEE      MOSUNNY   25  12  58 NW13      30.50R WCI  14
WAUKESHA       PTSUNNY   19  12  73 W14G20    30.51R WCI   6
MILWAUKEE/TIMM SUNNY     23  10  58 NW16      30.51R WCI  10
RACINE         SUNNY     24  12  60 NW14      30.52R WCI  12
BURLINGTON     MOSUNNY   27  18  67 NW14      30.51R WCI  16
KENOSHA        MOSUNNY   24  13  62 NW14      30.51R WCI  12
FOND DU LAC    MOSUNNY   21  11  65 W12       30.49R WCI   9
SHEBOYGAN      MOSUNNY   23  12  62 NW13      30.47R WCI  11
WEST BEND      SUNNY     23  14  68 W14G21    30.48R WCI  11
JUNEAU         MOSUNNY   19  12  75 W8        30.51R WCI   8
$$

LSZ147-162-091700-
LAKE SUPERIOR

STATION/POSITION TIME  TEMP    WIND        PRES    WAVE
                       AIR SEA DIR/SP/G            HT/PER
                 (UTC) (F)     (DEG/KT/KT) (MB)    (FT/S)
DEVILS ISLAND    1500   18     310/ 15/ 20 1033.4R
PORT WING        1540   17     300/ 12/ 18 1033.2S
SAXON HARBOR     1540   18     240/ 10/ 15 1032.5R
$$

LMZ867-665-643>646-091700-
LAKE MICHIGAN

STATION/POSITION TIME  TEMP    WIND        PRES    WAVE
                       AIR SEA DIR/SP/G            HT/PER
                 (UTC) (F)     (DEG/KT/KT) (MB)    (FT/S)
CHAMBERS ISLAND  1540   24     300/  8/ 16 1029.5R
NORTHPORT PIER   1530   25     310/ 15/ 20 1029.1R
SISTER BAY       1505   24     320/ 19/ 22   N/A
ALGOMA LAKESHORE 1436          310/ 13/ 16   N/A
KEWAUNEE LAKESHO 1530   23     310/ 13/ 18 1030.0R
SHEBOYGAN LAKESH 1500   22     270/  9/ 11 1032.3R
PORT WASHINGTON  1530   23     300/ 10/ 14 1033.2R
MILWAUKEE LAKESH 1530   23     310/ 12/ 15   N/A
KENOSHA   LAKESH 1500   23     310/ 16/ 21 1032.2
$$

TC  - TEMPERATURE IN CELSIUS
VSB - VISIBILITY IN STATUTE MILES
WCI - WIND CHILL INDEX
HX  - HEAT INDEX





USA.gov is the U.S. government's official web portal to all federal, state and local government web resources and services.